Home   Weather   Jackson   Past weeks

Flag for USA Past Weather in Jackson, Mississippi, USA — Yesterday and Last 2 Weeks

Now
51 °F

Overcast.


Feels Like: 51 °F
Forecast: 46 / 55 °F
Wind: 3 mph from Northwest

Location: Hawkins Field

Current Time: Dec 7, 2016 at 12:36:27 pm

Latest Report: Dec 7, 2016 at 11:53 am


Visibility: 10 mi

Pressure: 30.11 "Hg

Humidity: 83%

Dew Point: 46 °F

Location of JacksonLocation

Past Weather in Jackson — Graph

°F

Jackson Temperature Yesterday

Maximum temperature yesterday: 52 °F (at 11:53 am)
Minimum temperature yesterday: 49 °F (at 10:53 pm)
Average temperature yesterday: 51 °F

High & Low Weather Summary for the Past Weeks

 TemperatureHumidityPressure
High76 °F (Nov 29, 12:53 pm)97% (Nov 24, 4:53 am)30.42 "Hg (Nov 24, 4:53 am)
Low32 °F (Nov 27, 6:53 am)14% (Nov 22, 1:53 pm)29.45 "Hg (Nov 28, 2:53 pm)
Average54 °F75%30.05 "Hg
* Reported Nov 22 11:53 am — Dec 7 11:01 am, Jackson, Weather by CustomWeather, © 2016

Note: Actual official high and low records may vary slightly from our data, if they occured in-between our weather recording intervals... More about our weather records

Advertising

Jackson Weather History for the Previous 24 Hours

Scroll right to see more
 ConditionsComfort  
Time TempWeatherWind HumidityBarometerVisibility
11:01 am
Wed, Dec 7
51 °FOvercast.No wind80%30.15 "Hg10 mi
9:53 am49 °FLow clouds.5 mph90%30.14 "Hg8 mi
8:53 am47 °FFog.5 mph93%30.13 "Hg4 mi
7:53 am47 °FFog.6 mph93%30.11 "Hg1 mi
6:53 am47 °FFog.5 mph93%30.09 "Hg2 mi
5:53 am48 °FFog.No wind93%30.06 "Hg3 mi
4:53 am48 °FFog.No wind93%30.05 "Hg3 mi
3:53 am48 °FLow clouds.No wind93%30.04 "Hg8 mi
2:53 am48 °FFog.No wind93%30.05 "Hg4 mi
1:53 am48 °FFog.No wind93%30.03 "Hg5 mi
12:53 am48 °FFog.No wind89%30.03 "Hg6 mi
11:53 pm
Tue, Dec 6
49 °FLow clouds.3 mph86%30.03 "Hg10 mi
10:53 pm49 °FOvercast.3 mph86%30.05 "Hg10 mi
9:53 pm50 °FOvercast.No wind83%30.04 "Hg10 mi
8:53 pm50 °FLow clouds.3 mph83%30.03 "Hg10 mi
7:53 pm50 °FOvercast.3 mph86%30.01 "Hg10 mi
6:53 pm50 °FOvercast.6 mph83%30.01 "Hg10 mi
5:53 pm50 °FOvercast.5 mph86%30.00 "Hg10 mi
4:53 pm51 °FOvercast.3 mph80%29.98 "Hg10 mi
3:53 pm52 °FOvercast.5 mph80%29.94 "Hg10 mi
2:53 pm52 °FOvercast.7 mph83%29.93 "Hg10 mi
1:53 pm51 °FOvercast.7 mph86%29.92 "Hg9 mi
12:53 pm51 °FFog.10 mph89%29.91 "Hg4 mi
Weather by CustomWeather, © 2016

See weather overviewHow to use our weather pages